| time (UTC) | temp F | wind direction | speed MPH | gust MPH | rain 1hr in | rain 24hr in | rain mn in | humidity % | barometer mb |
| 20260506174800 | 54 | 185 | 10.0 | 20.0 | 0.00 | 0.00 | 0.00 | 41 | 1015.4 |
| 20260506174257 | 53 | 199 | 8.0 | 19.0 | 0.00 | 0.00 | 0.00 | 41 | 1015.7 |
| 20260506173755 | 55 | 201 | 14.0 | 18.0 | 0.00 | 0.00 | 0.00 | 40 | 1015.4 |
| 20260506173252 | 54 | 187 | 8.0 | 21.0 | 0.00 | 0.00 | 0.00 | 41 | 1015.4 |
| 20260506172748 | 53 | 192 | 9.0 | 17.0 | 0.00 | 0.00 | 0.00 | 40 | 1015.4 |
| 20260506172245 | 53 | 216 | 8.0 | 20.0 | 0.00 | 0.00 | 0.00 | 39 | 1015.5 |
| 20260506171743 | 54 | 188 | 7.0 | 23.0 | 0.00 | 0.00 | 0.00 | 39 | 1015.5 |
| 20260506171240 | 53 | 211 | 4.0 | 11.0 | 0.00 | 0.00 | 0.00 | 43 | 1015.7 |
| 20260506170738 | 53 | 221 | 5.0 | 16.0 | 0.00 | 0.00 | 0.00 | 40 | 1015.7 |
| 20260506170233 | 52 | 203 | 7.0 | 15.0 | 0.00 | 0.00 | 0.00 | 42 | 1015.7 |
| 20260506165732 | 53 | 203 | 7.0 | 16.0 | 0.00 | 0.00 | 0.00 | 39 | 1015.4 |
| 20260506165229 | 54 | 211 | 7.0 | 19.0 | 0.00 | 0.00 | 0.00 | 40 | 1015.6 |
| 20260506164726 | 53 | 211 | 6.0 | 13.0 | 0.00 | 0.00 | 0.00 | 39 | 1015.6 |
| 20260506164223 | 53 | 185 | 0.0 | 23.0 | 0.00 | 0.00 | 0.00 | 42 | 1015.8 |
| 20260506163720 | 53 | 177 | 9.0 | 15.0 | 0.00 | 0.00 | 0.00 | 39 | 1015.5 |
| 20260506163215 | 55 | 187 | 14.0 | 18.0 | 0.00 | 0.00 | 0.00 | 39 | 1015.8 |
| 20260506162711 | 54 | 183 | 10.0 | 19.0 | 0.00 | 0.00 | 0.00 | 39 | 1015.5 |
| 20260506162208 | 54 | 225 | 5.0 | 13.0 | 0.00 | 0.00 | 0.00 | 41 | 1015.4 |
| 20260506161706 | 53 | 229 | 10.0 | 15.0 | 0.00 | 0.00 | 0.00 | 38 | 1015.6 |
| 20260506161203 | 53 | 193 | 13.0 | 18.0 | 0.00 | 0.00 | 0.00 | 40 | 1015.9 |
| 20260506160701 | 53 | 182 | 8.0 | 14.0 | 0.00 | 0.00 | 0.00 | 39 | 1015.6 |
| 20260506160157 | 51 | 197 | 15.0 | 15.0 | 0.00 | 0.00 | 0.00 | 43 | 1015.6 |
| 20260506155655 | 52 | 185 | 9.0 | 15.0 | 0.00 | 0.00 | 0.00 | 42 | 1015.8 |
| 20260506155152 | 52 | 231 | 11.0 | 11.0 | 0.00 | 0.00 | 0.00 | 43 | 1015.4 |
| 20260506153254 | 51 | 165 | 3.0 | 15.0 | 0.00 | 0.00 | 0.00 | 46 | 1015.6 |
| 20260506152751 | 51 | 182 | 11.0 | 13.0 | 0.00 | 0.00 | 0.00 | 47 | 1015.7 |
| 20260506152248 | 52 | 185 | 4.0 | 13.0 | 0.00 | 0.00 | 0.00 | 44 | 1015.7 |
| 20260506151747 | 51 | 180 | 10.0 | 10.0 | 0.00 | 0.00 | 0.00 | 48 | 1015.6 |
| 20260506151243 | 51 | 213 | 6.0 | 14.0 | 0.00 | 0.00 | 0.00 | 48 | 1015.9 |
| 20260506150740 | 51 | 126 | 4.0 | 14.0 | 0.00 | 0.00 | 0.00 | 47 | 1015.9 |
| 20260506150237 | 51 | 232 | 3.0 | 12.0 | 0.00 | 0.00 | 0.00 | 47 | 1016.0 |
| 20260506145734 | 50 | 183 | 9.0 | 15.0 | 0.00 | 0.00 | 0.00 | 48 | 1015.8 |
| 20260506145230 | 51 | 199 | 6.0 | 17.0 | 0.00 | 0.00 | 0.00 | 50 | 1015.8 |
| 20260506144728 | 50 | 161 | 6.0 | 16.0 | 0.00 | 0.00 | 0.00 | 47 | 1015.8 |
| 20260506144225 | 50 | 189 | 4.0 | 17.0 | 0.00 | 0.00 | 0.00 | 48 | 1015.8 |
| 20260506143722 | 51 | 203 | 12.0 | 15.0 | 0.00 | 0.00 | 0.00 | 47 | 1015.8 |
| 20260506143220 | 51 | 197 | 11.0 | 13.0 | 0.00 | 0.00 | 0.00 | 47 | 1015.8 |
| 20260506142718 | 50 | 242 | 4.0 | 14.0 | 0.00 | 0.00 | 0.00 | 49 | 1015.8 |
| 20260506142216 | 50 | 206 | 5.0 | 12.0 | 0.00 | 0.00 | 0.00 | 48 | 1016.0 |
| 20260506141714 | 50 | 145 | 4.0 | 12.0 | 0.00 | 0.00 | 0.00 | 52 | 1015.8 |
| 20260506141212 | 50 | 207 | 11.0 | 13.0 | 0.00 | 0.00 | 0.00 | 47 | 1015.8 |
| 20260506140709 | 50 | 207 | 9.0 | 20.0 | 0.00 | 0.00 | 0.00 | 48 | 1015.8 |
| 20260506140206 | 50 | 217 | 4.0 | 11.0 | 0.00 | 0.00 | 0.00 | 46 | 1015.7 |
| 20260506135703 | 51 | 173 | 8.0 | 12.0 | 0.00 | 0.00 | 0.00 | 48 | 1015.8 |
| 20260506135159 | 50 | 184 | 7.0 | 12.0 | 0.00 | 0.00 | 0.00 | 50 | 1015.6 |
| 20260506134656 | 50 | 155 | 6.0 | 8.0 | 0.00 | 0.00 | 0.00 | 50 | 1015.7 |
| 20260506134152 | 49 | 203 | 6.0 | 8.0 | 0.00 | 0.00 | 0.00 | 50 | 1015.5 |
| 20260506133649 | 49 | 184 | 5.0 | 8.0 | 0.00 | 0.00 | 0.00 | 51 | 1015.4 |
| 20260506133146 | 49 | 143 | 7.0 | 7.0 | 0.00 | 0.00 | 0.00 | 55 | 1015.6 |
| 20260506132643 | 48 | 171 | 4.0 | 5.0 | 0.00 | 0.00 | 0.00 | 54 | 1015.3 |
| 20260506132140 | 48 | 173 | 4.0 | 6.0 | 0.00 | 0.00 | 0.00 | 53 | 1015.4 |
| 20260506131638 | 48 | 169 | 6.0 | 8.0 | 0.00 | 0.00 | 0.00 | 54 | 1015.3 |
| 20260506131133 | 48 | 128 | 6.0 | 8.0 | 0.00 | 0.00 | 0.00 | 53 | 1015.3 |
| 20260506130630 | 48 | 148 | 4.0 | 6.0 | 0.00 | 0.00 | 0.00 | 54 | 1015.1 |
| 20260506130128 | 48 | 92 | 3.0 | 8.0 | 0.00 | 0.00 | 0.00 | 57 | 1015.3 |
| 20260506125626 | 48 | 140 | 3.0 | 6.0 | 0.00 | 0.00 | 0.00 | 58 | 1015.1 |
| 20260506125123 | 47 | 155 | 3.0 | 6.0 | 0.00 | 0.00 | 0.00 | 62 | 1015.1 |
| 20260506124621 | 47 | 148 | 3.0 | 5.0 | 0.00 | 0.00 | 0.00 | 63 | 1015.0 |
| 20260506124119 | 47 | 124 | 3.0 | 7.0 | 0.00 | 0.00 | 0.00 | 63 | 1015.0 |
| 20260506123616 | 46 | 171 | 3.0 | 5.0 | 0.00 | 0.00 | 0.00 | 67 | 1015.0 |
| 20260506123115 | 46 | 148 | 3.0 | 4.0 | 0.00 | 0.00 | 0.00 | 67 | 1015.2 |
| 20260506122611 | 46 | 173 | 1.0 | 3.0 | 0.00 | 0.00 | 0.00 | 70 | 1014.8 |
| 20260506122109 | 45 | 156 | 2.0 | 5.0 | 0.00 | 0.00 | 0.00 | 70 | 1014.8 |
| 20260506121606 | 45 | 159 | 4.0 | 4.0 | 0.00 | 0.00 | 0.00 | 73 | 1014.8 |
| 20260506121102 | 45 | 110 | 2.0 | 3.0 | 0.00 | 0.00 | 0.00 | 74 | 1014.5 |
| 20260506120601 | 44 | 125 | 2.0 | 3.0 | 0.00 | 0.00 | 0.00 | 77 | 1014.4 |
| 20260506120057 | 43 | 111 | 2.0 | 3.0 | 0.00 | 0.00 | 0.00 | 81 | 1014.6 |
| 20260506115556 | 42 | 106 | 2.0 | 3.0 | 0.00 | 0.00 | 0.00 | 85 | 1014.6 |
| 20260506115054 | 41 | 97 | 2.0 | 3.0 | 0.00 | 0.00 | 0.00 | 89 | 1014.5 |
| 20260506114551 | 40 | 110 | 2.0 | 3.0 | 0.00 | 0.00 | 0.00 | 93 | 1014.7 |
| 20260506114049 | 39 | 103 | 2.0 | 3.0 | 0.00 | 0.00 | 0.00 | 95 | 1014.7 |
| 20260506113547 | 38 | 88 | 1.0 | 3.0 | 0.00 | 0.00 | 0.00 | 96 | 1014.4 |
| 20260506113044 | 37 | 141 | 2.0 | 3.0 | 0.00 | 0.00 | 0.00 | 97 | 1014.5 |
| 20260506112540 | 36 | 112 | 2.0 | 3.0 | 0.00 | 0.00 | 0.00 | 97 | 1014.5 |
| 20260506112038 | 35 | 103 | 2.0 | 3.0 | 0.00 | 0.00 | 0.00 | 98 | 1014.7 |
| 20260506111535 | 35 | 120 | 1.0 | 3.0 | 0.00 | 0.00 | 0.00 | 98 | 1014.6 |
| 20260506111032 | 35 | 120 | 3.0 | 3.0 | 0.00 | 0.00 | 0.00 | 98 | 1014.6 |
| 20260506110530 | 35 | 112 | 3.0 | 4.0 | 0.00 | 0.00 | 0.00 | 98 | 1014.4 |
| 20260506110027 | 34 | 133 | 2.0 | 3.0 | 0.00 | 0.00 | 0.00 | 98 | 1014.3 |
| 20260506105523 | 34 | 140 | 2.0 | 3.0 | 0.00 | 0.00 | 0.00 | 97 | 1014.3 |
| 20260506105021 | 34 | 116 | 2.0 | 3.0 | 0.00 | 0.00 | 0.00 | 97 | 1014.3 |
| 20260506104518 | 34 | 124 | 1.0 | 3.0 | 0.00 | 0.00 | 0.00 | 97 | 1014.2 |
| 20260506104016 | 33 | 109 | 2.0 | 3.0 | 0.00 | 0.00 | 0.00 | 95 | 1013.7 |
| 20260506103513 | 33 | 115 | 1.0 | 3.0 | 0.00 | 0.00 | 0.00 | 95 | 1013.8 |
| 20260506103009 | 33 | 115 | 0.0 | 2.0 | 0.00 | 0.00 | 0.00 | 94 | 1013.8 |
| 20260506102508 | 33 | 85 | 2.0 | 3.0 | 0.00 | 0.00 | 0.00 | 94 | 1013.6 |
| 20260506102005 | 34 | 86 | 1.0 | 2.0 | 0.00 | 0.00 | 0.00 | 95 | 1013.9 |
| 20260506101501 | 34 | 119 | 1.0 | 3.0 | 0.00 | 0.00 | 0.00 | 95 | 1013.6 |
| 20260506100959 | 34 | 89 | 2.0 | 3.0 | 0.00 | 0.00 | 0.00 | 93 | 1013.7 |
| 20260506100457 | 34 | 99 | 1.0 | 2.0 | 0.00 | 0.00 | 0.00 | 93 | 1013.9 |
| 20260506095954 | 34 | 89 | 1.0 | 3.0 | 0.00 | 0.00 | 0.00 | 93 | 1013.8 |
| 20260506095453 | 34 | 108 | 2.0 | 2.0 | 0.00 | 0.00 | 0.00 | 92 | 1013.7 |
| 20260506094948 | 33 | 87 | 1.0 | 2.0 | 0.00 | 0.00 | 0.00 | 90 | 1013.7 |
| 20260506094448 | 33 | 115 | 1.0 | 3.0 | 0.00 | 0.00 | 0.00 | 90 | 1013.7 |
| 20260506093945 | 34 | 82 | 1.0 | 2.0 | 0.00 | 0.00 | 0.00 | 90 | 1013.6 |
| 20260506093443 | 34 | 87 | 0.0 | 2.0 | 0.00 | 0.00 | 0.00 | 90 | 1013.8 |
| 20260506092940 | 34 | 117 | 2.0 | 2.0 | 0.00 | 0.00 | 0.00 | 90 | 1013.7 |
| 20260506092438 | 34 | 93 | 1.0 | 2.0 | 0.00 | 0.00 | 0.00 | 89 | 1013.8 |
| 20260506091934 | 34 | 114 | 0.0 | 2.0 | 0.00 | 0.00 | 0.00 | 90 | 1014.0 |
| 20260506091432 | 34 | 117 | 2.0 | 2.0 | 0.00 | 0.00 | 0.00 | 89 | 1013.9 |
| 20260506090929 | 35 | 102 | 1.0 | 2.0 | 0.00 | 0.00 | 0.00 | 88 | 1013.9 |
| 20260506090427 | 34 | 102 | 2.0 | 3.0 | 0.00 | 0.00 | 0.00 | 88 | 1013.9 |
| 20260506085923 | 35 | 116 | 2.0 | 2.0 | 0.00 | 0.00 | 0.00 | 88 | 1014.0 |
| 20260506085420 | 35 | 129 | 0.0 | 2.0 | 0.00 | 0.00 | 0.00 | 89 | 1013.9 |
| 20260506084917 | 34 | 110 | 0.0 | 2.0 | 0.00 | 0.00 | 0.00 | 89 | 1013.8 |
| 20260506084414 | 34 | 113 | 1.0 | 2.0 | 0.00 | 0.00 | 0.00 | 88 | 1013.8 |
| 20260506083909 | 34 | 89 | 0.0 | 2.0 | 0.00 | 0.00 | 0.00 | 87 | 1013.9 |
| 20260506083408 | 35 | 93 | 1.0 | 2.0 | 0.00 | 0.00 | 0.00 | 86 | 1013.6 |
| 20260506082905 | 35 | 113 | 1.0 | 2.0 | 0.00 | 0.00 | 0.00 | 86 | 1013.7 |
| 20260506082401 | 35 | 116 | 1.0 | 2.0 | 0.00 | 0.00 | 0.00 | 87 | 1013.5 |
| 20260506081857 | 35 | 89 | 0.0 | 2.0 | 0.00 | 0.00 | 0.00 | 85 | 1013.5 |
| 20260506081355 | 36 | 97 | 1.0 | 2.0 | 0.00 | 0.00 | 0.00 | 86 | 1013.5 |
| 20260506080852 | 35 | 112 | 0.0 | 2.0 | 0.00 | 0.00 | 0.00 | 86 | 1013.5 |
| 20260506080349 | 35 | 115 | 0.0 | 2.0 | 0.00 | 0.00 | 0.00 | 87 | 1013.6 |
| 20260506073333 | 36 | 106 | 1.0 | 2.0 | 0.00 | 0.00 | 0.00 | 85 | 1013.3 |
| 20260506072824 | 37 | 99 | 1.0 | 2.0 | 0.00 | 0.00 | 0.00 | 83 | 1013.4 |
| 20260506072322 | 37 | 98 | 2.0 | 2.0 | 0.00 | 0.00 | 0.00 | 83 | 1013.3 |
| 20260506071820 | 37 | 76 | 1.0 | 2.0 | 0.00 | 0.00 | 0.00 | 82 | 1013.3 |
| 20260506071318 | 38 | 91 | 1.0 | 2.0 | 0.00 | 0.00 | 0.00 | 79 | 1013.2 |
| 20260506070814 | 38 | 94 | 1.0 | 2.0 | 0.00 | 0.00 | 0.00 | 78 | 1013.3 |
| 20260506070311 | 38 | 78 | 1.0 | 3.0 | 0.00 | 0.00 | 0.00 | 76 | 1013.3 |
| 20260506062248 | 41 | 87 | 2.0 | 2.0 | 0.00 | 0.00 | 0.00 | 67 | 1013.6 |
| 20260506061744 | 41 | 104 | 0.0 | 2.0 | 0.00 | 0.00 | 0.00 | 65 | 1013.6 |
| 20260506061241 | 42 | 98 | 0.0 | 2.0 | 0.00 | 0.00 | 0.00 | 63 | 1013.3 |
| 20260506060740 | 42 | 83 | 1.0 | 2.0 | 0.00 | 0.00 | 0.00 | 63 | 1013.5 |
| 20260506060237 | 43 | 46 | 1.0 | 3.0 | 0.00 | 0.00 | 0.00 | 62 | 1013.2 |
| 20260506051209 | 46 | 43 | 2.0 | 5.0 | 0.00 | 0.00 | 0.00 | 58 | 1013.4 |
| 20260506050707 | 46 | 48 | 2.0 | 5.0 | 0.00 | 0.00 | 0.00 | 57 | 1013.0 |
| 20260506050204 | 46 | 14 | 0.0 | 6.0 | 0.00 | 0.00 | 0.00 | 57 | 1013.0 |
| 20260506044655 | 46 | 33 | 3.0 | 7.0 | 0.00 | 0.00 | 0.00 | 56 | 1013.3 |
| 20260506044151 | 46 | 15 | 2.0 | 3.0 | 0.00 | 0.00 | 0.00 | 56 | 1013.1 |
| 20260506043649 | 47 | 32 | 2.0 | 7.0 | 0.00 | 0.00 | 0.00 | 55 | 1013.3 |
| 20260506043146 | 47 | 12 | 2.0 | 4.0 | 0.00 | 0.00 | 0.00 | 54 | 1013.1 |
| 20260506042646 | 47 | 350 | 1.0 | 8.0 | 0.00 | 0.00 | 0.00 | 53 | 1013.2 |
| 20260506042143 | 47 | 324 | 1.0 | 4.0 | 0.00 | 0.00 | 0.00 | 55 | 1013.1 |
| 20260506041641 | 46 | 49 | 1.0 | 3.0 | 0.00 | 0.00 | 0.00 | 56 | 1012.8 |
| 20260506041138 | 46 | 55 | 0.0 | 3.0 | 0.00 | 0.00 | 0.00 | 56 | 1012.9 |
| 20260506040635 | 47 | 68 | 0.0 | 2.0 | 0.00 | 0.00 | 0.00 | 56 | 1012.7 |
| 20260506040132 | 47 | 20 | 2.0 | 3.0 | 0.00 | 0.00 | 0.00 | 55 | 1013.0 |
| 20260506035629 | 47 | 60 | 1.0 | 2.0 | 0.00 | 0.00 | 0.00 | 54 | 1012.8 |
| 20260506035126 | 48 | 339 | 0.0 | 3.0 | 0.00 | 0.00 | 0.00 | 53 | 1012.9 |
| 20260506034623 | 48 | 39 | 1.0 | 4.0 | 0.00 | 0.00 | 0.00 | 53 | 1012.8 |
| 20260506034120 | 48 | 69 | 2.0 | 3.0 | 0.00 | 0.00 | 0.00 | 53 | 1012.4 |
| 20260506033617 | 48 | 39 | 3.0 | 4.0 | 0.00 | 0.00 | 0.00 | 53 | 1012.5 |
| 20260506033114 | 48 | 60 | 2.0 | 4.0 | 0.00 | 0.00 | 0.00 | 52 | 1012.0 |
| 20260506032612 | 49 | 67 | 0.0 | 3.0 | 0.00 | 0.00 | 0.00 | 51 | 1012.3 |
| 20260506032108 | 49 | 25 | 1.0 | 5.0 | 0.00 | 0.00 | 0.00 | 49 | 1012.5 |
| 20260506031605 | 49 | 59 | 0.0 | 4.0 | 0.00 | 0.00 | 0.00 | 50 | 1012.5 |
| 20260506031102 | 49 | 147 | 0.0 | 5.0 | 0.00 | 0.00 | 0.00 | 49 | 1012.5 |
| 20260506030601 | 49 | 40 | 2.0 | 3.0 | 0.00 | 0.00 | 0.00 | 49 | 1012.5 |
| 20260506030057 | 50 | 0 | 1.0 | 4.0 | 0.00 | 0.00 | 0.00 | 48 | 1012.5 |
| 20260506025554 | 50 | 51 | 0.0 | 3.0 | 0.00 | 0.00 | 0.00 | 48 | 1012.5 |
| 20260506025050 | 50 | 132 | 2.0 | 4.0 | 0.00 | 0.00 | 0.00 | 48 | 1012.2 |
| 20260506024548 | 50 | 343 | 1.0 | 5.0 | 0.00 | 0.00 | 0.00 | 47 | 1012.0 |
| 20260506024044 | 50 | 293 | 1.0 | 7.0 | 0.00 | 0.00 | 0.00 | 47 | 1011.9 |
| 20260506023540 | 51 | 316 | 2.0 | 4.0 | 0.00 | 0.00 | 0.00 | 46 | 1012.0 |
| 20260506023038 | 51 | 347 | 3.0 | 8.0 | 0.00 | 0.00 | 0.00 | 46 | 1011.9 |
| 20260506022535 | 51 | 294 | 2.0 | 7.0 | 0.00 | 0.00 | 0.00 | 47 | 1012.0 |
| 20260506022032 | 51 | 247 | 2.0 | 5.0 | 0.00 | 0.00 | 0.00 | 49 | 1012.0 |
| 20260506021530 | 50 | 285 | 2.0 | 5.0 | 0.00 | 0.00 | 0.00 | 52 | 1011.8 |
| 20260506021027 | 50 | 22 | 0.0 | 3.0 | 0.00 | 0.00 | 0.00 | 55 | 1011.7 |
| 20260506020525 | 50 | 112 | 0.0 | 3.0 | 0.00 | 0.00 | 0.00 | 53 | 1011.6 |
| 20260506020022 | 50 | 151 | 0.0 | 2.0 | 0.00 | 0.00 | 0.00 | 52 | 1011.4 |
| 20260506015519 | 50 | 229 | 0.0 | 2.0 | 0.00 | 0.00 | 0.00 | 52 | 1011.3 |
| 20260506015016 | 50 | 78 | 2.0 | 2.0 | 0.00 | 0.00 | 0.00 | 52 | 1011.3 |
| 20260506014513 | 50 | 71 | 0.0 | 2.0 | 0.00 | 0.00 | 0.00 | 51 | 1011.3 |
| 20260506014009 | 50 | 170 | 1.0 | 3.0 | 0.00 | 0.00 | 0.00 | 50 | 1010.9 |
| 20260506013507 | 50 | 62 | 0.0 | 2.0 | 0.00 | 0.00 | 0.00 | 48 | 1010.9 |
| 20260506013004 | 51 | 150 | 0.0 | 2.0 | 0.00 | 0.00 | 0.00 | 48 | 1011.0 |
| 20260506012500 | 50 | 113 | 1.0 | 3.0 | 0.00 | 0.00 | 0.00 | 48 | 1011.0 |
| 20260506011957 | 51 | 150 | 1.0 | 3.0 | 0.00 | 0.00 | 0.00 | 47 | 1011.0 |
| 20260506011454 | 51 | 115 | 2.0 | 3.0 | 0.00 | 0.00 | 0.00 | 47 | 1010.8 |
| 20260506010950 | 51 | 108 | 1.0 | 2.0 | 0.00 | 0.00 | 0.00 | 46 | 1010.7 |
| 20260506010450 | 51 | 134 | 0.0 | 2.0 | 0.00 | 0.00 | 0.00 | 45 | 1010.5 |
| 20260506005945 | 52 | 200 | 1.0 | 2.0 | 0.00 | 0.00 | 0.00 | 44 | 1010.5 |
| 20260506005443 | 52 | 118 | 0.0 | 3.0 | 0.00 | 0.00 | 0.00 | 45 | 1010.3 |
| 20260506004938 | 52 | 269 | 2.0 | 4.0 | 0.00 | 0.00 | 0.00 | 43 | 1010.7 |
| 20260506004437 | 53 | 103 | 1.0 | 2.0 | 0.00 | 0.00 | 0.00 | 43 | 1010.5 |
| 20260506003932 | 53 | 297 | 0.0 | 4.0 | 0.00 | 0.00 | 0.00 | 42 | 1010.5 |
| 20260506003429 | 53 | 282 | 5.0 | 5.0 | 0.00 | 0.00 | 0.00 | 42 | 1010.5 |
| 20260506002926 | 53 | 155 | 1.0 | 3.0 | 0.00 | 0.00 | 0.00 | 42 | 1010.4 |
| 20260506002422 | 53 | 288 | 2.0 | 7.0 | 0.00 | 0.00 | 0.00 | 41 | 1010.3 |
| 20260506001917 | 54 | 226 | 4.0 | 8.0 | 0.00 | 0.00 | 0.00 | 41 | 1010.5 |
| 20260506001415 | 54 | 205 | 5.0 | 7.0 | 0.00 | 0.00 | 0.00 | 40 | 1010.2 |
| 20260506000912 | 54 | 254 | 3.0 | 11.0 | 0.00 | 0.00 | 0.00 | 40 | 1010.1 |
| 20260506000409 | 54 | 232 | 3.0 | 8.0 | 0.00 | 0.00 | 0.00 | 40 | 1010.4 |
| 20260505235906 | 54 | 223 | 3.0 | 7.0 | 0.00 | 0.00 | 0.00 | 40 | 1010.3 |
| 20260505235404 | 54 | 288 | 6.0 | 13.0 | 0.00 | 0.00 | 0.00 | 40 | 1010.4 |
| 20260505234900 | 54 | 277 | 3.0 | 7.0 | 0.00 | 0.00 | 0.00 | 41 | 1010.5 |
| 20260505234358 | 55 | 243 | 12.0 | 12.0 | 0.00 | 0.00 | 0.00 | 41 | 1010.4 |
| 20260505233854 | 55 | 256 | 3.0 | 9.0 | 0.00 | 0.00 | 0.00 | 40 | 1010.5 |
| 20260505233352 | 55 | 297 | 4.0 | 8.0 | 0.00 | 0.00 | 0.00 | 40 | 1010.4 |
| 20260505232850 | 55 | 216 | 2.0 | 12.0 | 0.00 | 0.00 | 0.00 | 40 | 1010.3 |
| 20260505232348 | 55 | 223 | 4.0 | 9.0 | 0.00 | 0.00 | 0.00 | 39 | 1010.3 |
| 20260505231844 | 55 | 229 | 2.0 | 9.0 | 0.00 | 0.00 | 0.00 | 39 | 1010.2 |
| 20260505231341 | 55 | 277 | 2.0 | 10.0 | 0.00 | 0.00 | 0.00 | 39 | 1010.4 |
| 20260505230839 | 55 | 194 | 4.0 | 9.0 | 0.00 | 0.00 | 0.00 | 40 | 1010.3 |
| 20260505230336 | 55 | 206 | 5.0 | 15.0 | 0.00 | 0.00 | 0.00 | 39 | 1010.6 |
| 20260505225833 | 55 | 232 | 7.0 | 13.0 | 0.00 | 0.00 | 0.00 | 38 | 1010.6 |
| 20260505225330 | 55 | 233 | 2.0 | 4.0 | 0.00 | 0.00 | 0.00 | 40 | 1010.5 |
| 20260505224825 | 55 | 288 | 3.0 | 7.0 | 0.00 | 0.00 | 0.00 | 40 | 1010.6 |
| 20260505224324 | 55 | 204 | 3.0 | 8.0 | 0.00 | 0.00 | 0.00 | 40 | 1010.4 |
| 20260505223820 | 55 | 182 | 7.0 | 8.0 | 0.00 | 0.00 | 0.00 | 40 | 1010.6 |
| 20260505223317 | 55 | 308 | 2.0 | 12.0 | 0.00 | 0.00 | 0.00 | 39 | 1010.6 |
| 20260505222813 | 55 | 203 | 7.0 | 13.0 | 0.00 | 0.00 | 0.00 | 39 | 1010.6 |
| 20260505222309 | 55 | 268 | 2.0 | 9.0 | 0.00 | 0.00 | 0.00 | 41 | 1010.8 |
| 20260505221807 | 56 | 277 | 4.0 | 11.0 | 0.00 | 0.00 | 0.00 | 39 | 1010.4 |
| 20260505221303 | 56 | 54 | 0.0 | 5.0 | 0.00 | 0.00 | 0.00 | 41 | 1010.6 |
| 20260505220800 | 55 | 193 | 8.0 | 10.0 | 0.00 | 0.00 | 0.00 | 39 | 1010.2 |
| 20260505220257 | 55 | 228 | 5.0 | 15.0 | 0.00 | 0.00 | 0.00 | 40 | 1010.8 |
| 20260505215755 | 55 | 243 | 7.0 | 12.0 | 0.00 | 0.00 | 0.00 | 38 | 1010.8 |
| 20260505215253 | 56 | 220 | 4.0 | 9.0 | 0.00 | 0.00 | 0.00 | 39 | 1010.6 |
| 20260505214750 | 56 | 266 | 7.0 | 13.0 | 0.00 | 0.00 | 0.00 | 38 | 1010.3 |
| 20260505214248 | 56 | 253 | 0.0 | 5.0 | 0.00 | 0.00 | 0.00 | 39 | 1010.4 |
| 20260505213745 | 56 | 275 | 6.0 | 11.0 | 0.00 | 0.00 | 0.00 | 37 | 1010.5 |
| 20260505213242 | 56 | 196 | 6.0 | 16.0 | 0.00 | 0.00 | 0.00 | 38 | 1010.6 |
| 20260505212738 | 56 | 205 | 3.0 | 17.0 | 0.00 | 0.00 | 0.00 | 37 | 1010.4 |
| 20260505212236 | 56 | 206 | 7.0 | 16.0 | 0.00 | 0.00 | 0.00 | 37 | 1010.5 |
| 20260505211732 | 55 | 237 | 8.0 | 19.0 | 0.00 | 0.00 | 0.00 | 37 | 1010.6 |
| 20260505211230 | 55 | 247 | 3.0 | 10.0 | 0.00 | 0.00 | 0.00 | 36 | 1010.7 |
| 20260505210726 | 56 | 206 | 11.0 | 16.0 | 0.00 | 0.00 | 0.00 | 35 | 1010.8 |
| 20260505210223 | 56 | 276 | 6.0 | 17.0 | 0.00 | 0.00 | 0.00 | 34 | 1010.6 |
| 20260505205720 | 57 | 169 | 4.0 | 17.0 | 0.00 | 0.00 | 0.00 | 36 | 1010.4 |
| 20260505205218 | 56 | 228 | 4.0 | 15.0 | 0.00 | 0.00 | 0.00 | 36 | 1010.4 |
| 20260505204714 | 56 | 244 | 7.0 | 15.0 | 0.00 | 0.00 | 0.00 | 36 | 1010.6 |
| 20260505204212 | 56 | 199 | 5.0 | 14.0 | 0.00 | 0.00 | 0.00 | 37 | 1010.6 |
| 20260505203704 | 56 | 241 | 8.0 | 11.0 | 0.00 | 0.00 | 0.00 | 37 | 1010.7 |
| 20260505203201 | 56 | 209 | 6.0 | 15.0 | 0.00 | 0.00 | 0.00 | 36 | 1010.7 |
| 20260505202656 | 56 | 196 | 5.0 | 13.0 | 0.00 | 0.00 | 0.00 | 38 | 1010.7 |
| 20260505202153 | 56 | 261 | 6.0 | 14.0 | 0.00 | 0.00 | 0.00 | 35 | 1010.7 |
| 20260505201649 | 56 | 256 | 5.0 | 15.0 | 0.00 | 0.00 | 0.00 | 35 | 1010.7 |
| 20260505201147 | 56 | 262 | 5.0 | 11.0 | 0.00 | 0.00 | 0.00 | 34 | 1010.6 |
| 20260505200645 | 57 | 266 | 6.0 | 13.0 | 0.00 | 0.00 | 0.00 | 34 | 1010.8 |
| 20260505200141 | 57 | 204 | 3.0 | 17.0 | 0.00 | 0.00 | 0.00 | 33 | 1010.8 |
| 20260505195637 | 57 | 252 | 8.0 | 17.0 | 0.00 | 0.00 | 0.00 | 33 | 1010.8 |
| 20260505195135 | 57 | 207 | 4.0 | 10.0 | 0.00 | 0.00 | 0.00 | 35 | 1010.8 |
| 20260505194632 | 57 | 249 | 3.0 | 19.0 | 0.00 | 0.00 | 0.00 | 38 | 1010.9 |
| 20260505194128 | 56 | 200 | 5.0 | 18.0 | 0.00 | 0.00 | 0.00 | 34 | 1010.8 |
| 20260505193625 | 56 | 238 | 12.0 | 18.0 | 0.00 | 0.00 | 0.00 | 34 | 1010.9 |
| 20260505193122 | 57 | 233 | 4.0 | 11.0 | 0.00 | 0.00 | 0.00 | 34 | 1010.8 |
| 20260505192621 | 57 | 245 | 9.0 | 24.0 | 0.00 | 0.00 | 0.00 | 34 | 1011.3 |
| 20260505192117 | 57 | 238 | 6.0 | 8.0 | 0.00 | 0.00 | 0.00 | 36 | 1011.2 |
| 20260505191616 | 57 | 225 | 10.0 | 15.0 | 0.00 | 0.00 | 0.00 | 37 | 1011.2 |
| 20260505191113 | 56 | 261 | 5.0 | 9.0 | 0.00 | 0.00 | 0.00 | 35 | 1011.0 |
| 20260505190609 | 56 | 318 | 5.0 | 24.0 | 0.00 | 0.00 | 0.00 | 37 | 1011.1 |
| 20260505190104 | 57 | 280 | 3.0 | 11.0 | 0.00 | 0.00 | 0.00 | 39 | 1011.0 |
| 20260505185601 | 56 | 252 | 3.0 | 18.0 | 0.00 | 0.00 | 0.00 | 38 | 1011.1 |
| 20260505185057 | 57 | 299 | 8.0 | 25.0 | 0.00 | 0.00 | 0.00 | 34 | 1011.0 |
| 20260505184554 | 55 | 277 | 5.0 | 22.0 | 0.00 | 0.00 | 0.00 | 34 | 1010.9 |
| 20260505184051 | 56 | 66 | 3.0 | 20.0 | 0.00 | 0.00 | 0.00 | 37 | 1011.1 |
| 20260505183547 | 56 | 237 | 12.0 | 24.0 | 0.00 | 0.00 | 0.00 | 35 | 1010.9 |
| 20260505183045 | 56 | 225 | 17.0 | 21.0 | 0.00 | 0.00 | 0.00 | 36 | 1010.9 |
| 20260505182541 | 56 | 182 | 5.0 | 21.0 | 0.00 | 0.00 | 0.00 | 36 | 1010.9 |
| 20260505182038 | 56 | 287 | 2.0 | 16.0 | 0.00 | 0.00 | 0.00 | 41 | 1011.0 |
| 20260505181535 | 56 | 208 | 9.0 | 14.0 | 0.00 | 0.00 | 0.00 | 36 | 1010.7 |
| 20260505181033 | 56 | 224 | 4.0 | 14.0 | 0.00 | 0.00 | 0.00 | 38 | 1010.8 |
| 20260505180528 | 56 | 275 | 4.0 | 12.0 | 0.00 | 0.00 | 0.00 | 37 | 1010.5 |
| 20260505180027 | 55 | 238 | 6.0 | 13.0 | 0.00 | 0.00 | 0.00 | 37 | 1010.6 |
| 20260505175526 | 57 | 203 | 5.0 | 10.0 | 0.00 | 0.00 | 0.00 | 36 | 1010.7 |